AEROCUBE 12B (43557 NORAD) Tracking and Keplerian Element Data

This shows tracking and keplerian element data for the satellite.

Feedback or suggestion? Click here.




ElementValue
Catalog43557
NameAEROCUBE 12B
Epoch Orbit5520
Epoch Day193.85485468
Epoch Year2019
RAAN300.9182
Inclination51.6427
Eccentricity0.0008838
Argument of Perigee153.7854
Mean Anonmoly206.3575
Mean Motion15.28625477
Decay Rate8.53E-06
L11 43557U 18046D 19193.85485468 .00000853 00000-0 42856-4 0 9999
L22 43557 51.6427 300.9182 0008838 153.7854 206.3575 15.28625477 55201

Live tracking and technical data element details for AEROCUBE 12B (NORAD 43557). AEROCUBE 12B can be tracked NOW for your location showing map with azimuth and elevation plus other details from your city location.

Track the satellite on the map from your city or location and see movement details for azimuth, elevation, latitude, longitude, range, height, and movement on the map or in text.







IsCatalogInMostPopularTable: catalog: 43557, numindb: 194
Update: records affected: 1



GetName: 43557 AEROCUBE 12B

Hit Count: updated at: Tue, 16 Jul 2019 20:16:29 GMT